Location: Kuffner-Sternwarte
(48.2130°N, 16.2960°E)
Time: 06:30:38
(UTC+02:00)

ACS3 Solar Sail - Pass Details

Date: 20 September 2024
Orbit: 963 x 1036 km, 97.4° (Epoch: 04 October)

Event Time Altitude Azimuth Distance (km) Brightness Sun altitude
Exits shadow 20:55:13 19° 162° (SSE) 2,215 3.3 -20.0°
Maximum altitude 20:59:59 86° 75° (ENE) 1,046 1.8 -20.7°
Drops below altitude 10° 21:06:27 10° 348° (NNW) 2,843 4.7 -21.7°
Sets 21:08:57 0° 348° (NNW) 3,794 5.5 -22.1°
